Location: Unspecified
(33.6682°S, 0.0000°E)
Time: 02:20:29
(UTC+00:00)

Tiros 1 despin weight - Pass Details

Date: 20 June 2019
Orbit: 594 x 642 km, 48.2° (Epoch: 17 August)

Event Time Altitude Azimuth Distance (km) Brightness Sun altitude
Rises 19:48:13 0° 253° (WSW) 2,952 ? -34.3°
Reaches altitude 10° 19:51:47 10° 281° (W) 2,025 ? -35.0°
Maximum altitude 19:53:52 13° 307° (NW) 1,825 ? -35.4°
Enters shadow 19:54:58 12° 323° (NW) 1,874 ? -35.7°
Drops below altitude 10° 19:55:57 10° 334° (NNW) 2,002 - -35.9°
Sets 19:59:26 0° 2° (N) 2,886 - -36.6°
